World > North America > United States > Massachusetts

Hourly Tower Square, MA Regional Weather

Feedback E-mail the Weather

Quick WX

Tower Square, MA Weather Maps

°F °C°F °C
Tower Square Weather Map
UTC Time: 7/1/2022, 10:27
Your Time:

Tower Square, MA Regional Weather

Expires:202207011100;;488278
ASUS41 KOKX 011014
RWROKX

Regional Weather Roundup
National Weather Service New York NY
600 AM EDT FRI JUL 01 2022

Note: "FAIR" indicates few or no clouds below 12,000 feet with no
significant weather and/or obstructions to visibility.


CTZ002-004>006-009-010-012-RIZ004-006-007-MAZ004-011-015-011100-
Southern New England

 In CT
  
CITY           SKY/WX    TMP DP  RH WIND       PRES   REMARKS
Bradley Intl   MOCLDY    65  61  87 S8        30.07S                  
Hartford       CLEAR     67  62  84 SW3       30.07S                  
Danbury        CLEAR     62  58  86 CALM      30.10F                  
Wtrbury/Oxford CLEAR     63  61  93 CALM      30.11S                  
Norwalk Harbor   N/A     66 N/A N/A MISG        N/A                   
Bridgeport     CLEAR     66  63  90 CALM      30.08F                  
Meriden        CLEAR     61  58  90 CALM      30.08S                  
New Haven      PTCLDY    64  62  93 CALM      30.08F                  
Chester        FAIR      66  66 100 CALM      30.10S                  
Groton         CLEAR     63  61  93 MISG      30.08F                  
Willimantic    CLEAR     59  58  96 CALM      30.09F                  

 In RI
  
CITY           SKY/WX    TMP DP  RH WIND       PRES   REMARKS
Providence     MOCLDY    64  61  90 CALM      30.09S                  
Block Island   CLEAR     66  65  96 SW13      30.11S                  
Westerly       CLOUDY    67  65  93 SW3       30.09F FOG              
 
In MA
  
CITY           SKY/WX    TMP DP  RH WIND       PRES   REMARKS
Boston         MOCLDY    68  59  73 SW7       30.07S                  
Worcester      PTCLDY    64  58  80 W10       30.09S                  
Westfield      NOT AVBL                                               
Provincetown   PTCLDY    66  64  93 S8        30.09F                  
Nantucket      CLEAR     68  65  90 S9        30.11F                  
$$


SKY/WX - Weather  TMP - Temperature  DP - Dew Point  RH - Humidity
WIND - Wind Direction/Speed PRES - Barometric Pressure VSB - Visibility
WCI - Wind Chill Index E13G22 Wind - East Wind 13 mph/Gusts of 22 mph

Trending Headlines

Tower Square Radar Loop



Tower Square Quick Facts


National Two Day Weather Forecast


E-mail the Tower Square Weather Forecast

Voice your opinion or tell us about page issues...